Location: Marcé
(47.5801°N, 0.3280°W)
Time: 23:32:04
(UTC+01:00)

S-56A Canister/Altair - Pass Details

Date: 07 December 2021
Orbit: 633 x 2499 km, 38.9° (Epoch: 16 January)

Event Time Altitude Azimuth Distance (km) Brightness Sun altitude
Rises 02:35:42 0° 260° (W) 4,923 - -57.6°
Reaches altitude 10° 02:39:37 10° 255° (WSW) 3,618 - -57.1°
Maximum altitude 02:47:37 42° 188° (S) 1,514 - -56.1°
Drops below altitude 10° 02:53:08 10° 119° (ESE) 2,496 - -55.3°
Sets 02:55:22 0° 112° (ESE) 3,272 - -55.0°
